EW1876 Weather Reports


time (UTC)temp
C
wind
direction
speed
KPH
gust
KPH
rain 1hr
cm
rain 24hr
cm
rain mn
cm
humidity
%
barometer
mb
20190422121006 12 78 1.6 3.2 0.00 0.00 0.00 79 1030.4
20190422120007 12 78 1.6 4.8 0.00 0.00 0.00 79 1030.4
20190422115010 12 86 1.6 4.8 0.00 0.00 0.00 79 1030.5
20190422114006 12 86 1.6 4.8 0.00 0.00 0.00 79 1030.4
20190422113006 12 88 1.6 8.0 0.00 0.00 0.00 79 1030.4
20190422111007 12 91 1.6 4.8 0.00 0.00 0.00 78 1030.3
20190422110006 12 112 3.2 8.0 0.00 0.00 0.00 78 1030.3
20190422105006 12 118 3.2 4.8 0.00 0.00 0.00 77 1030.2
20190422101006 13 78 1.6 8.0 0.00 0.00 0.00 74 1030.0
20190422100007 13 87 3.2 9.7 0.00 0.00 0.00 74 1029.8
20190422095007 13 92 1.6 4.8 0.00 0.00 0.00 74 1029.7
20190422094006 13 93 1.6 8.0 0.00 0.00 0.00 73 1029.7
20190422093009 13 87 3.2 9.7 0.00 0.00 0.00 73 1029.5
20190422084006 14 83 3.2 9.7 0.00 0.00 0.00 71 1029.3
20190422083007 15 94 3.2 11.3 0.00 0.00 0.00 72 1029.1
20190422082006 15 87 4.8 12.9 0.00 0.00 0.00 71 1029.0
20190422080006 15 81 4.8 12.9 0.00 0.00 0.00 70 1029.0
20190422075007 15 60 8.0 16.1 0.00 0.00 0.00 70 1028.8
20190422074006 15 63 8.0 14.5 0.00 0.00 0.00 68 1028.7
20190422071006 16 71 9.7 19.3 0.00 0.00 0.00 65 1028.3
20190422070006 16 70 9.7 19.3 0.00 0.00 0.00 63 1028.3
20190422065007 17 85 8.0 22.5 0.00 0.00 0.00 61 1028.1
20190422064006 17 81 9.7 20.9 0.00 0.00 0.00 59 1028.2
20190422063007 17 80 4.8 20.9 0.00 0.00 0.00 58 1028.1
20190422062007 17 64 8.0 19.3 0.00 0.00 0.00 57 1028.0
20190422061006 18 66 4.8 14.5 0.00 0.00 0.00 56 1027.7
20190422054007 18 35 6.4 14.5 0.00 0.00 0.00 54 1027.8
20190422053007 18 72 8.0 14.5 0.00 0.00 0.00 53 1027.9
20190422052006 18 51 8.0 16.1 0.00 0.00 0.00 52 1027.9
20190422051006 18 59 4.8 19.3 0.00 0.00 0.00 52 1027.9
20190422050007 18 44 9.7 16.1 0.00 0.00 0.00 53 1027.9
20190422045007 18 29 8.0 16.1 0.00 0.00 0.00 53 1027.9
20190422044006 18 29 8.0 19.3 0.00 0.00 0.00 53 1027.9
20190422043006 18 57 9.7 19.3 0.00 0.00 0.00 52 1027.8
20190422035006 18 83 4.8 19.3 0.00 0.00 0.00 51 1027.8
20190422033007 18 52 8.0 19.3 0.00 0.00 0.00 52 1027.9
20190422032006 18 61 8.0 16.1 0.00 0.00 0.00 50 1028.0
20190422031006 18 64 6.4 16.1 0.00 0.00 0.00 50 1028.0
20190422030006 18 83 3.2 14.5 0.00 0.00 0.00 51 1028.0
20190422024007 18 44 6.4 12.9 0.00 0.00 0.00 51 1028.0
20190422023008 19 57 4.8 11.3 0.00 0.00 0.00 50 1028.0
20190422021007 18 80 3.2 11.3 0.00 0.00 0.00 51 1028.1
20190422020006 18 106 3.2 12.9 0.00 0.00 0.00 51 1028.1
20190422015006 18 83 0.0 4.8 0.00 0.00 0.00 51 1028.1
20190422012006 18 60 4.8 12.9 0.00 0.00 0.00 54 1028.0
20190422010007 17 55 0.0 0.0 0.00 0.00 0.00 58 1027.9
20190422004006 16 122 0.0 0.0 0.00 0.00 0.00 62 1027.9
20190422002007 16 238 0.0 0.0 0.00 0.00 0.00 67 1028.1
20190421235006 15 231 0.0 0.0 0.00 0.00 0.00 71 1028.0
20190421234006 15 217 0.0 0.0 0.00 0.00 0.00 72 1028.0
20190421233006 14 187 0.0 0.0 0.00 0.00 0.00 73 1027.9
20190421232006 14 186 0.0 0.0 0.00 0.00 0.00 73 1027.9
20190421230007 13 194 0.0 0.0 0.00 0.00 0.00 74 1027.8
20190421225006 13 198 0.0 0.0 0.00 0.00 0.00 75 1027.8
20190421224006 13 191 0.0 0.0 0.00 0.00 0.00 76 1027.8
20190421223007 13 183 0.0 0.0 0.00 0.00 0.00 77 1027.7
20190421222006 13 159 0.0 0.0 0.00 0.00 0.00 78 1027.7
20190421221006 13 187 0.0 0.0 0.00 0.00 0.00 79 1027.6
20190421220006 12 181 0.0 0.0 0.00 0.00 0.00 79 1027.6
20190421215005 12 184 0.0 0.0 0.00 0.00 0.00 79 1027.3
20190421213007 12 194 0.0 0.0 0.00 0.00 0.00 79 1027.1
20190421212007 12 206 0.0 0.0 0.00 0.00 0.00 79 1026.9
20190421211006 12 204 0.0 0.0 0.00 0.00 0.00 79 1026.7
20190421205006 13 194 0.0 0.0 0.00 0.00 0.00 79 1026.4
20190421204006 13 190 0.0 0.0 0.00 0.00 0.00 79 1026.3
20190421203006 13 183 0.0 0.0 0.00 0.00 0.00 79 1026.2
20190421202007 13 170 0.0 0.0 0.00 0.00 0.00 79 1026.2
20190421201006 13 184 0.0 0.0 0.00 0.00 0.00 79 1026.1
20190421200005 13 186 0.0 0.0 0.00 0.00 0.00 80 1026.2
20190421195006 13 192 0.0 0.0 0.00 0.00 0.00 80 1026.1
20190421194006 13 204 0.0 0.0 0.00 0.00 0.00 80 1026.0
20190421192006 13 195 0.0 0.0 0.00 0.00 0.00 80 1025.9
20190421190005 13 202 0.0 0.0 0.00 0.00 0.00 80 1025.5
20190421185006 13 195 0.0 0.0 0.00 0.00 0.00 80 1025.5
20190421184006 13 192 0.0 0.0 0.00 0.00 0.00 80 1025.4
20190421183006 13 182 0.0 0.0 0.00 0.00 0.00 80 1025.4
20190421182006 13 195 0.0 0.0 0.00 0.00 0.00 80 1025.4
20190421181006 13 184 0.0 0.0 0.00 0.00 0.00 80 1025.2
20190421180007 13 189 0.0 0.0 0.00 0.00 0.00 79 1025.3
20190421174006 13 199 0.0 0.0 0.00 0.00 0.00 80 1025.3
20190421172008 13 200 0.0 0.0 0.00 0.00 0.00 80 1025.2
20190421171006 13 184 0.0 0.0 0.00 0.00 0.00 80 1025.2
20190421170006 13 187 0.0 0.0 0.00 0.00 0.00 80 1025.2
20190421164007 13 196 0.0 0.0 0.00 0.00 0.00 80 1025.4
20190421163007 13 190 0.0 0.0 0.00 0.00 0.00 80 1025.3
20190421162007 13 189 0.0 0.0 0.00 0.00 0.00 81 1025.2
20190421161006 13 199 0.0 0.0 0.00 0.00 0.00 81 1025.2
20190421160006 13 221 0.0 0.0 0.00 0.00 0.00 81 1025.2
20190421154007 13 225 0.0 0.0 0.00 0.00 0.00 81 1025.2
20190421152007 13 227 0.0 0.0 0.00 0.00 0.00 81 1025.1
20190421150005 13 228 0.0 0.0 0.00 0.00 0.00 80 1025.5
20190421145006 13 226 0.0 0.0 0.00 0.00 0.00 80 1025.4
20190421144006 13 227 0.0 0.0 0.00 0.00 0.00 80 1025.4
20190421143008 13 181 0.0 9.7 0.00 0.00 0.00 80 1025.3
20190421142006 14 191 6.4 12.9 0.00 0.00 0.00 80 1025.3
20190421140007 14 186 4.8 14.5 0.00 0.00 0.00 79 1025.1
20190421134006 14 219 4.8 14.5 0.00 0.00 0.00 79 1025.0
20190421133007 14 219 4.8 12.9 0.00 0.00 0.00 78 1025.1
20190421132006 14 214 6.4 14.5 0.00 0.00 0.00 77 1025.1
20190421131007 14 241 3.2 12.9 0.00 0.00 0.00 77 1025.1
20190421130005 14 191 6.4 14.5 0.00 0.00 0.00 77 1025.0
20190421125006 14 195 8.0 14.5 0.00 0.00 0.00 77 1025.0
20190421124007 15 211 4.8 12.9 0.00 0.00 0.00 77 1025.0